Erie, CO

4:25 AM MST on December 16, 2017 (GMT -0700)
Erie Municipal Airport

Weather History for KEIK - June, 2012

Change the Weather History Date:

Wednesday, June 27, 2012

  Actual Average (KBJC) Record (KBJC)
Temperature  
Mean Temperature 78 °F -  
Max Temperature 95 °F 83 °F 100 °F (1990)
Min Temperature 60 °F 58 °F 40 °F (1985)
Cooling Degree Days 12    
Growing Degree Days 28 (Base 50)    
Moisture  
Dew Point 43 °F    
Average Humidity 34    
Maximum Humidity 60    
Minimum Humidity 12    
Precipitation  
Precipitation 0.00 in - - ()
Sea Level Pressure  
Sea Level Pressure 29.99 in    
Wind  
Wind Speed 4 mph (SW)    
Max Wind Speed 21 mph    
Max Gust Speed 31 mph    
Visibility 10 miles    
Events Rain , Thunderstorm    
Averages and records for this station are not official NWS values.
T = Trace of Precipitation, MM = Missing Value Source: NWS Daily Summary

Daily Weather History Graph

Daily Weather History Graph

Search for Another Location

Airport or City:

Trip Planner

Search our weather history database for the weather conditions in past years. The results will help you decide how hot, cold, wet, or windy it might be!

Date:

Astronomy

Jun. 27, 2012 Rise Set
Actual Time 5:33 AM MDT 8:33 PM MDT
Civil Twilight 5:00 AM MDT 9:05 PM MDT
Nautical Twilight 4:19 AM MDT 9:47 PM MDT
Astronomical Twilight 3:30 AM MDT 10:35 PM MDT
Moon 2:00 PM MDT (6/27) 12:34 AM MDT (6/27)
Length of Visible Light 16h 05m
Length of Day
14h 59m
First Quarter, 57% of the Moon is Illuminated
Jun 27
First Quarter
Jul 3
Full
Jul 10
Last Quarter
Jul 18
New
Jul 26
First Quarter

Hourly Weather History & Observations

Time (MDT) Temp. Dew Point Humidity Pressure Visibility Wind Dir Wind Speed Gust Speed Precip Events Conditions
12:08 AM 71.6 °F 42.8 °F 35% 29.88 in 10.0 mi Calm Calm - N/A   Clear
12:28 AM 71.6 °F 42.8 °F 35% 29.88 in 10.0 mi Calm Calm - N/A   Clear
12:48 AM 69.8 °F 42.8 °F 38% 29.88 in 10.0 mi Calm Calm - N/A   Clear
1:08 AM 69.8 °F 42.8 °F 38% 29.88 in 10.0 mi Calm Calm - N/A   Clear
1:28 AM 68.0 °F 42.8 °F 40% 29.87 in 10.0 mi SSW 5.8 mph - N/A   Clear
1:48 AM 68.0 °F 41.0 °F 37% 29.88 in 10.0 mi Calm Calm - N/A   Clear
2:08 AM 68.0 °F 41.0 °F 37% 29.88 in 10.0 mi Calm Calm - N/A   Clear
2:28 AM 68.0 °F 42.8 °F 40% 29.88 in 10.0 mi Calm Calm - N/A   Clear
2:48 AM 69.8 °F 42.8 °F 38% 29.88 in 10.0 mi Calm Calm - N/A   Clear
3:08 AM 64.4 °F 42.8 °F 45% 29.88 in 10.0 mi SSW 4.6 mph - N/A   Clear
3:28 AM 69.8 °F 39.2 °F 33% 29.88 in 10.0 mi South 6.9 mph - N/A   Clear
4:28 AM 62.6 °F 42.8 °F 48% 29.90 in 10.0 mi Calm Calm - N/A   Clear
4:48 AM 62.6 °F 42.8 °F 48% 29.90 in 10.0 mi Calm Calm - N/A   Clear
5:08 AM 62.6 °F 42.8 °F 48% 29.92 in 10.0 mi Calm Calm - N/A   Clear
5:28 AM 64.4 °F 42.8 °F 45% 29.93 in 10.0 mi South 3.5 mph - N/A   Clear
5:48 AM 62.6 °F 42.8 °F 48% 29.94 in 10.0 mi SW 5.8 mph - N/A   Clear
6:08 AM 60.8 °F 42.8 °F 52% 29.96 in 10.0 mi Calm Calm - N/A   Clear
6:28 AM 62.6 °F 44.6 °F 52% 29.96 in 10.0 mi Calm Calm - N/A   Clear
6:48 AM 68.0 °F 46.4 °F 46% 29.96 in 10.0 mi Calm Calm - N/A   Clear
7:08 AM 77.0 °F 44.6 °F 32% 29.96 in 10.0 mi SSW 3.5 mph - N/A   Clear
7:28 AM 80.6 °F 44.6 °F 28% 29.97 in 10.0 mi Calm Calm - N/A   Clear
7:48 AM 82.4 °F 42.8 °F 25% 29.97 in 10.0 mi Calm Calm - N/A   Clear
8:08 AM 87.8 °F 41.0 °F 19% 29.97 in 10.0 mi West 3.5 mph - N/A   Clear
8:28 AM 87.8 °F 41.0 °F 19% 29.97 in 10.0 mi WNW 4.6 mph - N/A   Clear
8:48 AM 87.8 °F 37.4 °F 17% 29.98 in 10.0 mi SSW 4.6 mph - N/A   Clear
9:08 AM 89.6 °F 37.4 °F 16% 29.98 in 10.0 mi WNW 3.5 mph - N/A   Clear
9:28 AM 89.6 °F 35.6 °F 15% 29.98 in 10.0 mi Calm Calm - N/A   Clear
9:48 AM 89.6 °F 37.4 °F 16% 29.98 in 10.0 mi SSE 3.5 mph - N/A   Clear
10:08 AM 89.6 °F 41.0 °F 18% 29.98 in 10.0 mi SSE 6.9 mph - N/A   Clear
10:28 AM 91.4 °F 39.2 °F 16% 29.98 in 10.0 mi South 4.6 mph - N/A   Clear
11:08 AM 93.2 °F 35.6 °F 13% 29.98 in 10.0 mi Calm Calm - N/A   Clear
11:28 AM 95.0 °F 35.6 °F 12% 29.99 in 10.0 mi West 8.1 mph - N/A   Clear
11:48 AM 93.2 °F 35.6 °F 13% 29.99 in 10.0 mi SSW 5.8 mph - N/A   Clear
12:08 PM 93.2 °F 35.6 °F 13% 29.99 in 10.0 mi West 10.4 mph - N/A   Clear
12:28 PM 91.4 °F 35.6 °F 14% 29.99 in 10.0 mi West 8.1 mph - N/A   Clear
12:48 PM 91.4 °F 35.6 °F 14% 29.99 in 10.0 mi West 8.1 mph - N/A   Clear
1:08 PM 91.4 °F 35.6 °F 14% 29.98 in 10.0 mi West 9.2 mph - N/A   Clear
1:28 PM 89.6 °F 35.6 °F 15% 29.98 in 10.0 mi West 3.5 mph - N/A   Clear
1:48 PM 91.4 °F 33.8 °F 13% 29.98 in 10.0 mi Calm Calm - N/A   Clear
2:08 PM 91.4 °F 33.8 °F 13% 29.97 in 10.0 mi Calm Calm - N/A   Clear
2:28 PM 91.4 °F 33.8 °F 13% 29.97 in 10.0 mi Calm Calm - N/A   Clear
2:48 PM 91.4 °F 33.8 °F 13% 29.97 in 10.0 mi Calm Calm - N/A Thunderstorm Thunderstorm
3:08 PM 89.6 °F 35.6 °F 15% 29.98 in 10.0 mi East 11.5 mph 16.1 mph N/A   Clear
3:28 PM 87.8 °F 39.2 °F 18% 30.02 in 5.0 mi SW 13.8 mph 28.8 mph N/A Thunderstorm Unknown
3:48 PM 78.8 °F 44.6 °F 30% 30.02 in 10.0 mi SSW 3.5 mph 17.3 mph N/A Rain , Thunderstorm Light Thunderstorms and Rain
4:08 PM 80.6 °F 44.6 °F 28% 30.02 in 10.0 mi South 18.4 mph - N/A   Clear
4:28 PM 80.6 °F 42.8 °F 26% 30.06 in 10.0 mi South 20.7 mph 31.1 mph N/A   Clear
4:48 PM 78.8 °F 44.6 °F 30% 30.09 in 10.0 mi SW 18.4 mph 27.6 mph N/A Rain Light Rain
5:08 PM 73.4 °F 50.0 °F 44% 30.07 in 10.0 mi South 19.6 mph 31.1 mph N/A Rain Light Rain
5:28 PM 75.2 °F 48.2 °F 38% 30.06 in 10.0 mi South 17.3 mph - N/A Rain Light Rain
5:48 PM 75.2 °F 46.4 °F 36% 30.03 in 10.0 mi South 9.2 mph 19.6 mph N/A Rain Light Rain
6:08 PM 75.2 °F 48.2 °F 38% 29.99 in 10.0 mi SSE 19.6 mph - N/A   Clear
6:28 PM 78.8 °F 46.4 °F 32% 30.02 in 10.0 mi WNW 12.7 mph 20.7 mph N/A   Clear
6:48 PM 77.0 °F 50.0 °F 39% 30.03 in 10.0 mi WNW 8.1 mph - N/A   Clear
7:08 PM 73.4 °F 51.8 °F 47% 30.04 in 10.0 mi WNW 4.6 mph - N/A   Clear
7:28 PM 75.2 °F 51.8 °F 44% 30.07 in 10.0 mi NW 9.2 mph - N/A   Clear
7:48 PM 73.4 °F 51.8 °F 47% 30.07 in 10.0 mi NNW 5.8 mph - N/A   Clear
8:08 PM 73.4 °F 50.0 °F 44% 30.07 in 10.0 mi ENE 4.6 mph - N/A   Clear
8:28 PM 71.6 °F 50.0 °F 46% 30.07 in 10.0 mi East 5.8 mph - N/A   Clear
8:48 PM 69.8 °F 50.0 °F 49% 30.07 in 10.0 mi Calm Calm - N/A   Clear
9:08 PM 69.8 °F 51.8 °F 53% 30.07 in 10.0 mi SSW 3.5 mph - N/A   Clear
9:28 PM 68.0 °F 51.8 °F 56% 30.09 in 10.0 mi SSW 5.8 mph - N/A   Clear
9:48 PM 68.0 °F 53.6 °F 60% 30.11 in 10.0 mi Calm Calm - N/A   Clear
10:08 PM 68.0 °F 53.6 °F 60% 30.11 in 10.0 mi WSW 3.5 mph - N/A   Clear
10:28 PM 68.0 °F 53.6 °F 60% 30.12 in 10.0 mi SSE 3.5 mph - N/A   Clear
10:48 PM 68.0 °F 51.8 °F 56% 30.11 in 10.0 mi South 9.2 mph - N/A   Clear
11:08 PM 71.6 °F 51.8 °F 50% 30.11 in 10.0 mi SSE 6.9 mph - N/A   Clear
11:28 PM 69.8 °F 51.8 °F 53% 30.12 in 10.0 mi Calm Calm - N/A   Clear
11:48 PM 68.0 °F 51.8 °F 56% 30.11 in 10.0 mi South 3.5 mph - N/A   Clear